| time (UTC) | temp C | wind direction | speed KPH | gust KPH | rain 1hr cm | rain 24hr cm | rain mn cm | humidity % | barometer mb |
| 20260507031537 | 12 | 336 | 0.0 | 0.0 | 0.00 | 0.00 | 0.00 | 59 | 1018.0 |
| 20260507030035 | 13 | 336 | 0.0 | 0.0 | 0.00 | 0.00 | 0.00 | 58 | 1017.8 |
| 20260507024533 | 13 | 24 | 0.0 | 0.0 | 0.00 | 0.00 | 0.00 | 56 | 1017.5 |
| 20260507023033 | 13 | 23 | 0.0 | 0.0 | 0.00 | 0.00 | 0.00 | 56 | 1017.3 |
| 20260507021532 | 14 | 30 | 0.0 | 3.2 | 0.00 | 0.00 | 0.00 | 54 | 1017.2 |
| 20260507020033 | 15 | 359 | 0.0 | 4.8 | 0.00 | 0.00 | 0.00 | 53 | 1017.0 |
| 20260507014531 | 15 | 32 | 0.0 | 3.2 | 0.00 | 0.00 | 0.00 | 52 | 1016.8 |
| 20260507013036 | 15 | 18 | 1.6 | 6.4 | 0.00 | 0.00 | 0.00 | 51 | 1016.6 |
| 20260507011533 | 16 | 65 | 1.6 | 6.4 | 0.00 | 0.00 | 0.00 | 51 | 1016.2 |
| 20260507010036 | 16 | 50 | 1.6 | 6.4 | 0.00 | 0.00 | 0.00 | 50 | 1016.2 |
| 20260507004528 | 16 | 18 | 3.2 | 11.3 | 0.00 | 0.00 | 0.00 | 49 | 1016.2 |
| 20260507003028 | 17 | 60 | 1.6 | 11.3 | 0.00 | 0.00 | 0.00 | 48 | 1016.1 |
| 20260507001530 | 17 | 13 | 4.8 | 12.9 | 0.00 | 0.00 | 0.00 | 48 | 1016.0 |
| 20260507000029 | 17 | 356 | 3.2 | 9.7 | 0.00 | 0.00 | 0.00 | 47 | 1016.0 |
| 20260506234542 | 17 | 29 | 4.8 | 8.0 | 0.00 | 0.00 | 0.00 | 47 | 1015.8 |
| 20260506233024 | 17 | 58 | 3.2 | 8.0 | 0.00 | 0.00 | 0.00 | 47 | 1015.7 |
| 20260506231524 | 18 | 345 | 1.6 | 9.7 | 0.00 | 0.00 | 0.00 | 47 | 1015.4 |
| 20260506230022 | 18 | 51 | 3.2 | 8.0 | 0.00 | 0.00 | 0.00 | 47 | 1015.5 |
| 20260506224527 | 18 | 40 | 3.2 | 12.9 | 0.00 | 0.00 | 0.00 | 47 | 1015.4 |
| 20260506223022 | 18 | 57 | 4.8 | 16.1 | 0.00 | 0.00 | 0.00 | 47 | 1015.1 |
| 20260506221519 | 18 | 113 | 4.8 | 16.1 | 0.00 | 0.00 | 0.00 | 48 | 1015.0 |
| 20260506220029 | 17 | 46 | 4.8 | 19.3 | 0.00 | 0.00 | 0.00 | 47 | 1015.0 |
| 20260506214515 | 17 | 36 | 4.8 | 9.7 | 0.00 | 0.00 | 0.00 | 49 | 1015.2 |
| 20260506213014 | 17 | 44 | 6.4 | 12.9 | 0.00 | 0.00 | 0.00 | 49 | 1015.3 |
| 20260506211518 | 17 | 33 | 6.4 | 11.3 | 0.00 | 0.00 | 0.00 | 49 | 1015.5 |
| 20260506210010 | 17 | 151 | 4.8 | 16.1 | 0.00 | 0.00 | 0.00 | 51 | 1015.7 |
| 20260506204509 | 17 | 25 | 3.2 | 19.3 | 0.00 | 0.00 | 0.00 | 51 | 1015.8 |
| 20260506203006 | 16 | 23 | 6.4 | 16.1 | 0.00 | 0.00 | 0.00 | 53 | 1015.8 |
| 20260506201506 | 16 | 20 | 4.8 | 12.9 | 0.00 | 0.00 | 0.00 | 52 | 1015.9 |
| 20260506200004 | 16 | 3 | 8.0 | 17.7 | 0.00 | 0.00 | 0.00 | 53 | 1016.1 |
| 20260506194503 | 16 | 25 | 1.6 | 11.3 | 0.00 | 0.00 | 0.00 | 55 | 1016.1 |
| 20260506193003 | 16 | 11 | 4.8 | 12.9 | 0.00 | 0.00 | 0.00 | 55 | 1016.2 |
| 20260506191502 | 16 | 44 | 1.6 | 14.5 | 0.00 | 0.00 | 0.00 | 55 | 1016.5 |
| 20260506190100 | 16 | 339 | 3.2 | 12.9 | 0.00 | 0.00 | 0.00 | 54 | 1016.5 |
| 20260506190001 | 16 | 40 | 4.8 | 12.9 | 0.00 | 0.00 | 0.00 | 53 | 1016.5 |
| 20260506184559 | 16 | 340 | 1.6 | 16.1 | 0.00 | 0.00 | 0.00 | 54 | 1016.5 |
| 20260506183102 | 16 | 30 | 4.8 | 11.3 | 0.00 | 0.00 | 0.00 | 53 | 1016.6 |
| 20260506181625 | 16 | 65 | 1.6 | 11.3 | 0.00 | 0.00 | 0.00 | 53 | 1016.8 |
| 20260506180058 | 16 | 41 | 4.8 | 12.9 | 0.00 | 0.00 | 0.00 | 53 | 1017.0 |
| 20260506174554 | 16 | 79 | 1.6 | 9.7 | 0.00 | 0.00 | 0.00 | 55 | 1017.0 |
| 20260506173121 | 15 | 42 | 4.8 | 16.1 | 0.00 | 0.00 | 0.00 | 54 | 1017.3 |
| 20260506171601 | 15 | 101 | 4.8 | 14.5 | 0.00 | 0.00 | 0.00 | 53 | 1017.3 |
| 20260506170058 | 15 | 40 | 3.2 | 9.7 | 0.00 | 0.00 | 0.00 | 58 | 1017.3 |
| 20260506164549 | 14 | 61 | 6.4 | 16.1 | 0.00 | 0.00 | 0.00 | 58 | 1017.2 |
| 20260506163046 | 13 | 48 | 4.8 | 12.9 | 0.00 | 0.00 | 0.00 | 59 | 1017.6 |
| 20260506161543 | 13 | 68 | 4.8 | 12.9 | 0.00 | 0.00 | 0.00 | 61 | 1017.5 |
| 20260506160044 | 13 | 30 | 6.4 | 16.1 | 0.00 | 0.00 | 0.00 | 62 | 1017.4 |
| 20260506154536 | 12 | 6 | 6.4 | 14.5 | 0.00 | 0.00 | 0.00 | 66 | 1017.3 |
| 20260506153031 | 11 | 32 | 6.4 | 14.5 | 0.00 | 0.00 | 0.00 | 68 | 1017.1 |
| 20260506151530 | 11 | 40 | 4.8 | 14.5 | 0.00 | 0.00 | 0.00 | 73 | 1017.0 |
| 20260506150026 | 11 | 49 | 3.2 | 16.1 | 0.00 | 0.00 | 0.00 | 72 | 1016.9 |
| 20260506144522 | 10 | 62 | 4.8 | 16.1 | 0.00 | 0.00 | 0.00 | 74 | 1016.6 |
| 20260506143021 | 10 | 27 | 3.2 | 19.3 | 0.00 | 0.00 | 0.00 | 75 | 1016.4 |
| 20260506141518 | 10 | 22 | 6.4 | 19.3 | 0.00 | 0.00 | 0.00 | 76 | 1016.2 |
| 20260506140016 | 10 | 60 | 6.4 | 14.5 | 0.00 | 0.00 | 0.00 | 78 | 1016.4 |
| 20260506134521 | 9 | 32 | 4.8 | 11.3 | 0.00 | 0.00 | 0.00 | 80 | 1016.5 |
| 20260506133015 | 9 | 12 | 3.2 | 12.9 | 0.00 | 0.00 | 0.00 | 80 | 1016.6 |
| 20260506131535 | 9 | 4 | 6.4 | 12.9 | 0.00 | 0.00 | 0.00 | 80 | 1016.6 |
| 20260506130016 | 9 | 23 | 4.8 | 11.3 | 0.00 | 0.00 | 0.00 | 80 | 1016.5 |
| 20260506124510 | 9 | 28 | 6.4 | 17.7 | 0.00 | 0.00 | 0.00 | 82 | 1016.2 |
| 20260506123009 | 9 | 39 | 3.2 | 11.3 | 0.00 | 0.00 | 0.00 | 82 | 1016.1 |
| 20260506121505 | 8 | 7 | 4.8 | 11.3 | 0.00 | 0.00 | 0.00 | 83 | 1015.5 |
| 20260506120008 | 8 | 26 | 1.6 | 12.9 | 0.00 | 0.00 | 0.00 | 83 | 1015.1 |
| 20260506114502 | 8 | 33 | 3.2 | 8.0 | 0.00 | 0.00 | 0.00 | 83 | 1015.1 |
| 20260506113001 | 8 | 355 | 3.2 | 11.3 | 0.00 | 0.00 | 0.00 | 82 | 1015.0 |
| 20260506111600 | 8 | 340 | 3.2 | 8.0 | 0.00 | 0.00 | 0.00 | 82 | 1014.7 |
| 20260506110104 | 8 | 44 | 3.2 | 8.0 | 0.00 | 0.00 | 0.00 | 81 | 1014.5 |
| 20260506104557 | 8 | 25 | 3.2 | 8.0 | 0.00 | 0.00 | 0.00 | 81 | 1015.0 |
| 20260506103054 | 9 | 65 | 3.2 | 9.7 | 0.00 | 0.00 | 0.00 | 80 | 1015.3 |
| 20260506101553 | 9 | 345 | 0.0 | 8.0 | 0.00 | 0.00 | 0.00 | 80 | 1015.0 |
| 20260506100052 | 9 | 353 | 0.0 | 6.4 | 0.00 | 0.00 | 0.00 | 79 | 1014.9 |
| 20260506094616 | 9 | 24 | 0.0 | 8.0 | 0.00 | 0.00 | 0.00 | 78 | 1014.8 |
| 20260506093047 | 9 | 26 | 3.2 | 11.3 | 0.00 | 0.00 | 0.00 | 77 | 1014.3 |
| 20260506091548 | 9 | 19 | 3.2 | 12.9 | 0.00 | 0.00 | 0.00 | 77 | 1013.7 |
| 20260506090042 | 9 | 39 | 1.6 | 9.7 | 0.00 | 0.00 | 0.00 | 76 | 1013.9 |
| 20260506084542 | 9 | 54 | 1.6 | 8.0 | 0.00 | 0.00 | 0.00 | 75 | 1013.6 |
| 20260506083037 | 9 | 5 | 1.6 | 14.5 | 0.00 | 0.00 | 0.00 | 75 | 1013.5 |
| 20260506081534 | 9 | 37 | 4.8 | 17.7 | 0.00 | 0.00 | 0.00 | 74 | 1012.7 |
| 20260506073029 | 9 | 14 | 3.2 | 9.7 | 0.00 | 0.00 | 0.00 | 74 | 1012.0 |
| 20260506071528 | 9 | 28 | 1.6 | 11.3 | 0.00 | 0.00 | 0.00 | 72 | 1012.2 |
| 20260506061523 | 9 | 37 | 6.4 | 12.9 | 0.00 | 0.00 | 0.00 | 72 | 1012.0 |
| 20260506044508 | 10 | 358 | 8.0 | 14.5 | 0.00 | 0.00 | 0.00 | 72 | 1011.6 |
| 20260506043007 | 10 | 25 | 4.8 | 16.1 | 0.00 | 0.00 | 0.00 | 74 | 1011.9 |
| 20260506041513 | 10 | 71 | 4.8 | 14.5 | 0.00 | 0.00 | 0.00 | 76 | 1011.8 |
| 20260506040006 | 10 | 19 | 3.2 | 9.7 | 0.00 | 0.00 | 0.00 | 79 | 1011.5 |
| 20260506034501 | 10 | 40 | 6.4 | 12.9 | 0.00 | 0.00 | 0.00 | 80 | 1011.5 |
| 20260506033100 | 10 | 357 | 6.4 | 14.5 | 0.00 | 0.00 | 0.00 | 80 | 1011.3 |